Weather History for Holdrege, NE

Change the Weather History Date:

Tuesday, December 11, 2012

  Actual Average Record
Temperature  
Mean Temperature 32 °F -  
Max Temperature 45 °F 41 °F 64 °F (1990)
Min Temperature 19 °F 16 °F -6 °F (1972)
Degree Days  
Heating Degree Days 33    
Moisture  
Dew Point 13 °F    
Average Humidity 51    
Maximum Humidity 83    
Minimum Humidity 22    
Precipitation  
Precipitation 0.00 in - - ()
Sea Level Pressure  
Sea Level Pressure 29.95 in    
Wind  
Wind Speed 8 mph (WSW)    
Max Wind Speed 16 mph    
Max Gust Speed 22 mph    
Visibility 10 miles    
Events      
Averages and records for this station are not official NWS values.
T = Trace of Precipitation, MM = Missing Value Source: NWS Daily Summary

Daily Weather History Graph

Daily Weather History Graph

Search for Another Location

Airport:

Trip Planner

Search our weather history database for the weather conditions in past years. The results will help you decide how hot, cold, wet, or windy it might be!

Date:

Astronomy

Dec. 11, 2012 Rise Set
Actual Time 7:50 AM CST 5:10 PM CST
Civil Twilight 7:20 AM CST 5:41 PM CST
Nautical Twilight 6:45 AM CST 6:15 PM CST
Astronomical Twilight 6:12 AM CST 6:48 PM CST
Moon 5:47 AM CST (12/11) 3:51 PM CST (12/11)
Length of Visible Light 10h 21m
Length of Day
9h 20m
Waning Crescent, 4% of the Moon is Illuminated
Dec 11
Waning Crescent
Dec 13
New
Dec 19
First Quarter
Dec 28
Full
Jan 4
Last Quarter

Hourly Weather History & Observations

Time (CST) Temp. Windchill Dew Point Humidity Pressure Visibility Wind Dir Wind Speed Gust Speed Precip Events Conditions
12:15 AM 30.0 °F 24.1 °F 14.5 °F 53% 29.95 in 10.0 mi WNW 5.8 mph - N/A   Clear
12:35 AM 30.9 °F 25.2 °F 15.8 °F 54% 29.94 in 10.0 mi NNW 5.8 mph - N/A   Clear
12:55 AM 30.0 °F 24.1 °F 15.3 °F 54% 29.94 in 10.0 mi NW 5.8 mph - N/A   Clear
1:15 AM 27.7 °F 20.4 °F 14.9 °F 59% 29.95 in 10.0 mi NW 6.9 mph - N/A   Clear
1:35 AM 26.8 °F 21.4 °F 15.1 °F 61% 29.96 in 10.0 mi WNW 4.6 mph - N/A   Clear
1:55 AM 29.1 °F 22.1 °F 16.3 °F 59% 29.96 in 10.0 mi WNW 6.9 mph - N/A   Scattered Clouds
2:15 AM 28.0 °F 21.7 °F 15.8 °F 60% 29.96 in 10.0 mi WNW 5.8 mph - N/A   Scattered Clouds
2:35 AM 27.5 °F 21.1 °F 16.3 °F 63% 29.97 in 10.0 mi WNW 5.8 mph - N/A   Clear
2:55 AM 27.7 °F 22.4 °F 16.5 °F 63% 29.97 in 10.0 mi WNW 4.6 mph - N/A   Clear
3:15 AM 26.6 °F 21.2 °F 16.3 °F 65% 29.97 in 10.0 mi West 4.6 mph - N/A   Clear
3:35 AM 27.1 °F 18.9 °F 16.7 °F 65% 29.97 in 10.0 mi West 8.1 mph - N/A   Clear
3:55 AM 24.3 °F 15.4 °F 15.8 °F 70% 29.97 in 10.0 mi West 8.1 mph - N/A   Clear
4:15 AM 23.2 °F 15.0 °F 15.4 °F 72% 29.97 in 10.0 mi West 6.9 mph - N/A   Clear
4:35 AM 23.0 °F 14.7 °F 15.6 °F 73% 29.97 in 10.0 mi West 6.9 mph - N/A   Clear
4:55 AM 22.1 °F 12.8 °F 15.3 °F 75% 29.98 in 10.0 mi WNW 8.1 mph - N/A   Clear
5:15 AM 21.2 °F 12.6 °F 14.0 °F 74% 29.98 in 10.0 mi West 6.9 mph - N/A   Clear
5:35 AM 20.8 °F 14.4 °F 14.4 °F 76% 29.98 in 10.0 mi WSW 4.6 mph - N/A   Clear
5:55 AM 20.8 °F 12.1 °F 14.5 °F 77% 29.98 in 10.0 mi West 6.9 mph - N/A   Clear
6:15 AM 19.8 °F 11.9 °F 13.8 °F 78% 29.98 in 10.0 mi West 5.8 mph - N/A   Clear
6:35 AM 21.0 °F 13.4 °F 14.9 °F 77% 29.98 in 10.0 mi WSW 5.8 mph - N/A   Clear
6:55 AM 20.5 °F 14.0 °F 14.7 °F 78% 29.99 in 10.0 mi WSW 4.6 mph - N/A   Clear
7:15 AM 19.8 °F 14.7 °F 14.0 °F 78% 30.00 in 10.0 mi WSW 3.5 mph - N/A   Clear
7:35 AM 19.9 °F 12.1 °F 14.7 °F 80% 30.00 in 10.0 mi West 5.8 mph - N/A   Clear
7:55 AM 20.3 °F 11.5 °F 15.4 °F 81% 30.00 in 10.0 mi West 6.9 mph - N/A   Clear
8:15 AM 21.4 °F 12.8 °F 16.9 °F 83% 30.00 in 10.0 mi West 6.9 mph - N/A   Clear
8:35 AM 23.7 °F 14.7 °F 18.5 °F 80% 30.00 in 10.0 mi WSW 8.1 mph - N/A   Clear
8:55 AM 24.8 °F 17.9 °F 18.5 °F 77% 30.01 in 10.0 mi WSW 5.8 mph - N/A   Clear
9:15 AM 25.5 °F 17.8 °F 17.6 °F 72% 30.01 in 10.0 mi WSW 6.9 mph - N/A   Clear
9:35 AM 26.6 °F 16.2 °F 17.4 °F 68% 30.01 in 10.0 mi WSW 11.5 mph - N/A   Clear
9:55 AM 27.9 °F 17.8 °F 17.8 °F 66% 30.02 in 10.0 mi West 11.5 mph - N/A   Clear
10:15 AM 30.0 °F 21.7 °F 18.5 °F 62% 30.02 in 10.0 mi West 9.2 mph - N/A   Clear
10:35 AM 31.8 °F 23.3 °F 18.7 °F 58% 30.02 in 10.0 mi WSW 10.4 mph - N/A   Clear
10:55 AM 33.8 °F 25.8 °F 18.5 °F 54% 30.01 in 10.0 mi WSW 10.4 mph - N/A   Clear
11:15 AM 35.4 °F 27.3 °F 18.3 °F 50% 30.01 in 10.0 mi WSW 11.5 mph - N/A   Clear
11:35 AM 37.4 °F 29.8 °F 18.0 °F 45% 30.00 in 10.0 mi WSW 11.5 mph - N/A   Clear
11:55 AM 38.7 °F 31.8 °F 17.6 °F 43% 29.99 in 10.0 mi WSW 10.4 mph - N/A   Clear
12:15 PM 41.2 °F 34.1 °F 16.5 °F 37% 29.99 in 10.0 mi WSW 12.7 mph 17.3 mph N/A   Clear
12:35 PM 42.3 °F 35.9 °F 16.2 °F 35% 29.97 in 10.0 mi SW 11.5 mph 17.3 mph N/A   Clear
12:55 PM 42.8 °F 35.8 °F 14.9 °F 32% 29.97 in 10.0 mi WSW 13.8 mph - N/A   Clear
1:15 PM 43.0 °F 35.4 °F 14.7 °F 32% 29.96 in 10.0 mi WSW 16.1 mph 20.7 mph N/A   Clear
1:35 PM 43.7 °F 36.6 °F 14.0 °F 30% 29.95 in 10.0 mi West 15.0 mph 19.6 mph N/A   Clear
1:55 PM 44.1 °F 37.7 °F 13.5 °F 29% 29.94 in 10.0 mi West 12.7 mph - N/A   Clear
2:15 PM 44.2 °F 38.0 °F 12.9 °F 28% 29.93 in 10.0 mi WSW 12.7 mph 18.4 mph N/A   Clear
2:35 PM 44.8 °F 38.3 °F 12.2 °F 27% 29.92 in 10.0 mi WSW 13.8 mph 21.9 mph N/A   Clear
2:55 PM 45.5 °F 39.9 °F 11.5 °F 25% 29.92 in 10.0 mi WSW 11.5 mph 20.7 mph N/A   Clear
3:15 PM 45.3 °F 39.0 °F 9.3 °F 23% 29.92 in 10.0 mi WSW 13.8 mph - N/A   Clear
3:35 PM 45.1 °F 38.8 °F 8.4 °F 22% 29.93 in 10.0 mi WSW 13.8 mph - N/A   Clear
3:55 PM 45.0 °F 38.9 °F 8.8 °F 23% 29.92 in 10.0 mi WSW 12.7 mph - N/A   Clear
4:15 PM 44.6 °F 39.7 °F 7.7 °F 22% 29.91 in 10.0 mi WSW 9.2 mph - N/A   Clear
4:35 PM 42.4 °F 37.5 °F 7.2 °F 23% 29.91 in 10.0 mi SW 8.1 mph - N/A   Clear
4:55 PM 40.1 °F 34.7 °F 6.4 °F 25% 29.91 in 10.0 mi SW 8.1 mph - N/A   Clear
5:15 PM 37.6 °F 32.3 °F 5.7 °F 27% 29.91 in 10.0 mi SW 6.9 mph - N/A   Clear
5:35 PM 34.9 °F 29.9 °F 5.5 °F 29% 29.92 in 10.0 mi SW 5.8 mph - N/A   Clear
5:55 PM 32.2 °F 25.8 °F 5.7 °F 33% 29.91 in 10.0 mi SSW 6.9 mph - N/A   Clear
6:15 PM 31.8 °F 25.4 °F 5.9 °F 34% 29.91 in 10.0 mi SSW 6.9 mph - N/A   Clear
6:35 PM 33.6 °F 25.6 °F 5.9 °F 31% 29.91 in 10.0 mi SSW 10.4 mph - N/A   Clear
6:55 PM 32.9 °F 24.7 °F 5.9 °F 32% 29.92 in 10.0 mi South 10.4 mph - N/A   Clear
7:15 PM 32.2 °F 24.4 °F 5.7 °F 33% 29.91 in 10.0 mi South 9.2 mph - N/A   Clear
7:35 PM 32.0 °F 24.2 °F 5.7 °F 33% 29.91 in 10.0 mi South 9.2 mph - N/A   Clear
7:55 PM 30.6 °F 23.1 °F 6.3 °F 36% 29.91 in 10.0 mi South 8.1 mph - N/A   Clear
8:15 PM 30.4 °F 22.2 °F 6.8 °F 37% 29.91 in 10.0 mi South 9.2 mph - N/A   Clear
8:35 PM 31.1 °F 21.9 °F 7.5 °F 37% 29.92 in 10.0 mi South 11.5 mph - N/A   Clear
8:55 PM 30.2 °F 20.2 °F 8.2 °F 40% 29.92 in 10.0 mi South 12.7 mph - N/A   Clear
9:15 PM 30.7 °F 21.4 °F 9.1 °F 40% 29.92 in 10.0 mi SSW 11.5 mph - N/A   Clear
9:35 PM 30.9 °F 22.2 °F 10.6 °F 43% 29.92 in 10.0 mi SSW 10.4 mph - N/A   Clear
9:55 PM 31.1 °F 22.4 °F 11.7 °F 45% 29.91 in 10.0 mi SSW 10.4 mph - N/A   Clear
10:15 PM 30.0 °F 21.7 °F 11.8 °F 47% 29.91 in 10.0 mi SW 9.2 mph - N/A   Clear
10:35 PM 29.3 °F 21.5 °F 12.2 °F 49% 29.91 in 10.0 mi SSW 8.1 mph - N/A   Clear
10:55 PM 28.6 °F 19.9 °F 12.7 °F 52% 29.91 in 10.0 mi SSW 9.2 mph - N/A   Clear
11:15 PM 28.6 °F 19.9 °F 13.3 °F 53% 29.91 in 10.0 mi SSW 9.2 mph - N/A   Clear
11:35 PM 29.1 °F 20.6 °F 14.2 °F 54% 29.91 in 10.0 mi SSW 9.2 mph - N/A   Clear
11:55 PM 29.8 °F 20.3 °F 14.7 °F 53% 29.91 in 10.0 mi SSW 11.5 mph 16.1 mph N/A   Clear